Location: Unspecified
(40.7540°N, 0.0000°E)
Time: 03:55:00
(UTC+00:00)

Spot 4 - Visible Passes

Search period start: 05 April 2026 00:00
Search period end: 15 April 2026 00:00
Orbit: 696 x 716 km, 98.2° (Epoch: 29 March)

Date Brightness Start Highest point End Pass type
(mag) Time Alt. Az. Time Alt. Az. Time Alt. Az.
6 Apr 6.7 22:53:09 13° N 22:53:09 13° N 22:53:37 10° N visible
7 Apr 6.8 23:37:23 12° NNW 23:37:23 12° NNW 23:37:40 10° NNW visible
8 Apr 6.6 22:42:40 13° N 22:42:40 13° N 22:43:17 10° N visible
9 Apr 6.7 23:26:54 14° NNW 23:26:54 14° NNW 23:27:31 10° NNW visible
10 Apr 6.5 22:32:11 13° NNE 22:32:11 13° NNE 22:32:53 10° NNE visible
11 Apr 6.5 23:16:25 16° N 23:16:25 16° N 23:17:19 10° N visible
12 Apr 6.4 22:21:42 13° NNE 22:21:42 13° NNE 22:22:25 10° NNE visible
13 Apr 6.7 00:00:39 12° NNW 00:00:39 12° NNW 00:00:56 10° NNW visible
13 Apr 6.4 23:05:56 17° N 23:05:56 17° N 23:07:04 10° N visible
14 Apr 6.4 22:11:13 12° NNE 22:11:13 12° NNE 22:11:50 10° NNE visible
14 Apr 6.6 23:50:10 14° NNW 23:50:10 14° NNW 23:50:53 10° NNW visible
